Tracking 17856 objects as of 28-September-2016
HD Live streaming from Space Station
objects crossing your sky now

NAVSTAR 19 (USA 54)

Track NAVSTAR 19 (USA 54) now!
NAVSTAR 19 (USA 54) is classified as:


NORAD ID: 20533
Int'l Code: 1990-025A
Perigee: 20,955.3 km
Apogee: 21,175.0 km
Inclination: 55.6 °
Period: 753.8 minutes
Semi major axis: 27436 km
RCS: 0.6015 m2 (medium)
Launch date: March 26, 1990
Source: United States (US)
Launch site: AIR FORCE EASTERN TEST RANGE (AFETR)
PRN:
Your satellite tracking list
Your tracking list is empty





NASA's NSSDC Master Catalog

Two Line Element Set (TLE):
1 20533U 90025A   16271.31040771  .00000000  00000-0  10000-3 0  9993
2 20533  55.5542  15.3008 0040027 152.1297 208.1000  1.91037230187270
Source of the keplerian elements: AFSPC

N2YO: 456